Date String (YYYY-MM-DD hh:mm:ss) UTC,Instrument flags,absolute air pressure of the measurement (hPa),sample flow rate (lpm),inlet stack bypass flow (lpm),air temperature of the measurement (°C),ambient temperature measured by the external sensor (°C),aerosol sample conditioner tube jacket temperature (°C),OPC LED temperature (°C),internal box temperature (°C),relative humidity of the measurement (%),span deviation,mass concentration of particles derived from Lorenz-Mie calculation of OPC scattering (μg/m³),mass concentration of particles derived from Lorenz-Mie calculation of OPC scattering (μg/m³),mass concentration of particles derived from Lorenz-Mie calculation of OPC scattering (μg/m³)
DateTimeUTC,F1_M11,P_M11,Q1_M11,Q2_M11,T1_M11,T2_M11,T3_M11,T4_M11,T5_M11,U1_M11,ZSPAN_M11,X0_M11,X2_M11,X1_M11
2024-04-19 22:00:00,SystemResetWarning,0833.9,5.01,000.00,019.7,019.1,000.0,028.3,021.5,024.1,0000.0,0005.18,0003.20,0002.94
2024-04-19 22:01:00,SystemResetWarning,0833.9,5.01,000.00,019.7,019.0,000.0,028.3,021.5,024.2,0000.0,0005.13,0003.19,0002.96
2024-04-19 22:02:00,SystemResetWarning,0833.9,5.00,000.00,019.7,019.0,000.0,028.3,021.5,024.4,0000.0,0005.07,0003.20,0002.99
2024-04-19 22:03:00,SystemResetWarning,0833.9,4.99,000.00,019.7,019.1,000.0,028.3,021.5,024.3,0000.0,0005.14,0003.23,0003.03
2024-04-19 22:04:00,SystemResetWarning,0833.9,5.00,000.00,019.7,019.1,000.0,028.3,021.5,024.4,0000.0,0005.11,0003.23,0003.07
2024-04-19 22:05:00,SystemResetWarning,0834.0,5.00,000.00,019.7,019.0,000.0,028.3,021.5,024.5,0000.0,0005.02,0003.24,0003.11
2024-04-19 22:06:00,SystemResetWarning,0833.9,5.01,000.00,019.7,019.0,000.0,028.2,021.5,024.5,0000.0,0005.04,0003.26,0003.14
2024-04-19 22:07:00,SystemResetWarning,0833.9,5.01,000.00,019.7,019.0,000.0,028.2,021.5,024.4,0000.0,0003.89,0003.30,0003.19
2024-04-19 22:08:00,SystemResetWarning,0834.0,5.00,000.00,019.7,019.1,000.0,028.2,021.5,024.3,0000.0,0003.99,0003.33,0003.23
2024-04-19 22:09:00,SystemResetWarning,0833.9,5.00,000.00,019.7,019.1,000.0,028.2,021.5,024.2,0000.0,0004.40,0003.36,0003.27
2024-04-19 22:10:00,SystemResetWarning,0834.0,5.00,000.00,019.7,019.1,000.0,028.2,021.5,023.9,0000.0,0004.49,0003.40,0003.31
2024-04-19 22:11:00,SystemResetWarning,0834.0,4.99,000.00,019.7,019.1,000.0,028.2,021.5,023.9,0000.0,0004.70,0003.47,0003.35
2024-04-19 22:12:00,SystemResetWarning,0834.0,5.00,000.00,019.7,019.1,000.0,028.2,021.5,023.9,0000.0,0004.77,0003.51,0003.38
2024-04-19 22:13:00,SystemResetWarning,0834.0,5.01,000.00,019.7,019.1,000.0,028.2,021.5,023.7,0000.0,0004.94,0003.54,0003.41
2024-04-19 22:14:00,SystemResetWarning,0834.0,5.01,000.00,019.7,019.0,000.0,028.2,021.5,023.7,0000.0,0005.08,0003.59,0003.43
2024-04-19 22:15:00,SystemResetWarning,0834.0,5.01,000.00,019.7,019.0,000.0,028.2,021.5,023.7,0000.0,0005.27,0003.63,0003.45
2024-04-19 22:16:00,SystemResetWarning,0834.0,4.99,000.00,019.7,019.1,000.0,028.2,021.5,023.7,0000.0,0005.38,0003.66,0003.47
2024-04-19 22:17:00,SystemResetWarning,0834.0,4.99,000.00,019.7,019.0,000.0,028.2,021.5,023.7,0000.0,0005.51,0003.70,0003.48
2024-04-19 22:18:00,SystemResetWarning,0834.0,5.00,000.00,019.7,019.0,000.0,028.2,021.5,023.7,0000.0,0005.54,0003.70,0003.48
2024-04-19 22:19:00,SystemResetWarning,0834.1,5.00,000.00,019.7,019.0,000.0,028.2,021.4,023.7,0000.0,0005.53,0003.74,0003.49
2024-04-19 22:20:00,SystemResetWarning,0834.1,5.01,000.00,019.7,019.0,000.0,028.2,021.5,023.6,0000.0,0005.28,0003.77,0003.49
2024-04-19 22:21:00,SystemResetWarning,0834.1,5.00,000.00,019.7,019.1,000.0,028.2,021.5,023.7,0000.0,0005.25,0003.77,0003.49
2024-04-19 22:22:00,SystemResetWarning,0834.1,5.00,000.00,019.7,019.1,000.0,028.2,021.5,023.7,0000.0,0005.14,0003.75,0003.49
2024-04-19 22:23:00,SystemResetWarning,0834.1,4.99,000.00,019.7,019.1,000.0,028.2,021.4,023.7,0000.0,0005.17,0003.76,0003.50
2024-04-19 22:24:00,SystemResetWarning,0834.2,5.00,000.00,019.7,019.1,000.0,028.2,021.4,023.8,0000.0,0005.15,0003.77,0003.51
2024-04-19 22:25:00,SystemResetWarning,0834.2,5.00,000.00,019.7,019.1,000.0,028.2,021.5,024.0,0000.0,0005.07,0003.76,0003.52
2024-04-19 22:26:00,SystemResetWarning,0834.2,5.00,000.00,019.7,019.1,000.0,028.2,021.5,024.1,0000.0,0005.11,0003.78,0003.52
2024-04-19 22:27:00,SystemResetWarning,0834.1,5.00,000.00,019.7,019.1,000.0,028.2,021.5,024.2,0000.0,0005.19,0003.81,0003.53
2024-04-19 22:28:00,SystemResetWarning,0834.1,5.01,000.00,019.7,019.1,000.0,028.2,021.5,025.0,0000.0,0005.12,0003.79,0003.53
2024-04-19 22:29:00,SystemResetWarning,0834.1,5.01,000.00,019.7,019.1,000.0,028.2,021.5,024.6,0000.0,0005.17,0003.81,0003.54
2024-04-19 22:30:00,SystemResetWarning,0834.1,5.01,000.00,019.7,019.1,000.0,028.2,021.4,024.4,0000.0,0005.27,0003.82,0003.55
2024-04-19 22:31:00,SystemResetWarning,0834.1,5.00,000.00,019.7,019.1,000.0,028.2,021.5,024.2,0000.0,0005.32,0003.85,0003.56
2024-04-19 22:32:00,SystemResetWarning,0834.1,5.00,000.00,019.7,019.1,000.0,028.2,021.5,023.9,0000.0,0005.36,0003.87,0003.57
2024-04-19 22:33:00,SystemResetWarning,0834.1,5.00,000.00,019.7,019.0,000.0,028.2,021.5,023.9,0000.0,0005.40,0003.87,0003.57
2024-04-19 22:34:00,SystemResetWarning,0834.1,5.00,000.00,019.7,019.0,000.0,028.2,021.4,023.9,0000.0,0005.41,0003.87,0003.57
2024-04-19 22:35:00,SystemResetWarning,0834.1,5.00,000.00,019.7,019.0,000.0,028.2,021.4,023.9,0000.0,0005.41,0003.87,0003.57
2024-04-19 22:36:00,SystemResetWarning,0834.0,5.00,000.00,019.6,019.0,000.0,028.2,021.4,023.9,0000.0,0005.43,0003.89,0003.59
2024-04-19 22:37:00,SystemResetWarning,0834.0,5.01,000.00,019.6,019.0,000.0,028.2,021.4,023.8,0000.0,0005.34,0003.86,0003.59
2024-04-19 22:38:00,SystemResetWarning,0834.1,5.01,000.00,019.6,019.0,000.0,028.2,021.4,023.8,0000.0,0005.29,0003.85,0003.60
2024-04-19 22:39:00,SystemResetWarning,0834.2,5.00,000.00,019.6,019.0,000.0,028.2,021.4,023.7,0000.0,0005.44,0003.87,0003.59
2024-04-19 22:40:00,SystemResetWarning,0834.5,4.98,000.00,019.6,019.0,000.0,028.2,021.4,023.6,0000.0,0005.45,0003.88,0003.60
2024-04-19 22:41:00,SystemResetWarning,0834.4,5.00,000.00,019.7,019.0,000.0,028.2,021.4,023.5,0000.0,0005.24,0003.85,0003.60
2024-04-19 22:42:00,SystemResetWarning,0834.4,5.00,000.00,019.6,019.0,000.0,028.2,021.4,023.5,0000.0,0005.09,0003.82,0003.61
2024-04-19 22:43:00,SystemResetWarning,0834.4,5.01,000.00,019.7,019.0,000.0,028.2,021.4,023.4,0000.0,0005.07,0003.81,0003.62
2024-04-19 22:44:00,SystemResetWarning,0834.4,5.01,000.00,019.7,019.0,000.0,028.2,021.4,023.4,0000.0,0005.06,0003.82,0003.63
2024-04-19 22:45:00,SystemResetWarning,0834.4,4.99,000.00,019.6,019.0,000.0,028.2,021.4,023.5,0000.0,0005.06,0003.83,0003.64
2024-04-19 22:46:00,SystemResetWarning,0834.3,4.99,000.00,019.6,019.0,000.0,028.2,021.4,023.4,0000.0,0005.56,0003.85,0003.64
2024-04-19 22:47:00,SystemResetWarning,0834.3,4.99,000.00,019.6,019.0,000.0,028.2,021.4,023.5,0000.0,0005.84,0003.88,0003.65
2024-04-19 22:48:00,SystemResetWarning,0834.4,4.99,000.00,019.6,019.0,000.0,028.2,021.4,023.4,0000.0,0005.87,0003.90,0003.67
2024-04-19 22:49:00,SystemResetWarning,0834.4,5.02,000.00,019.6,019.0,000.0,028.2,021.4,023.5,0000.0,0006.02,0003.94,0003.69
2024-04-19 22:50:00,SystemResetWarning,0834.5,5.01,000.00,019.6,019.0,000.0,028.2,021.4,023.5,0000.0,0006.07,0003.95,0003.71
2024-04-19 22:51:00,SystemResetWarning,0834.6,4.99,000.00,019.6,019.0,000.0,028.2,021.4,023.4,0000.0,0006.07,0003.95,0003.71
2024-04-19 22:52:00,SystemResetWarning,0835.0,4.99,000.00,019.6,019.0,000.0,028.2,021.4,023.3,0000.0,0006.17,0003.98,0003.72
2024-04-19 22:53:00,SystemResetWarning,0835.0,4.99,000.00,019.6,019.0,000.0,028.2,021.4,023.4,0000.0,0006.31,0004.01,0003.72
2024-04-19 22:54:00,SystemResetWarning,0835.0,5.01,000.00,019.6,019.0,000.0,028.2,021.4,023.5,0000.0,0006.43,0004.03,0003.71
2024-04-19 22:55:00,SystemResetWarning,0834.7,5.01,000.00,019.6,019.0,000.0,028.2,021.4,023.6,0000.0,0006.42,0004.03,0003.70
2024-04-19 22:56:00,SystemResetWarning,0834.7,5.01,000.00,019.6,019.0,000.0,028.2,021.4,023.4,0000.0,0006.46,0004.03,0003.71
2024-04-19 22:57:00,SystemResetWarning,0834.7,5.01,000.00,019.6,019.0,000.0,028.2,021.4,023.4,0000.0,0006.02,0004.03,0003.72
2024-04-19 22:58:00,SystemResetWarning,0834.7,5.00,000.00,019.6,019.0,000.0,028.2,021.4,023.5,0000.0,0005.79,0004.03,0003.73
2024-04-19 22:59:00,SystemResetWarning,0834.7,5.00,000.00,019.6,019.0,000.0,028.2,021.4,023.7,0000.0,0005.99,0004.06,0003.73
